Weather History for Dayton, OH

Change the Weather History Date:

Monday, April 1, 2013

  Actual Average Record
Temperature  
Mean Temperature 37 °F 46 °F  
Max Temperature 46 °F 56 °F 79 °F (1986)
Min Temperature 28 °F 37 °F 18 °F (1923)
Degree Days  
Heating Degree Days 28 19  
Month to date heating degree days 28 19  
Since 1 July heating degree days 4990 5058  
Cooling Degree Days 0 0  
Month to date cooling degree days 0 0  
Year to date cooling degree days 0 0  
Moisture  
Dew Point 23 °F    
Average Humidity 59    
Maximum Humidity 82    
Minimum Humidity 36    
Precipitation  
Precipitation 0.00 in 0.13 in 1.36 in (1970)
Month to date precipitation 0.00 0.13  
Year to date precipitation 7.55 8.42  
Snow  
Snow 0.00 in 0.00 in 3.00 in (1924)
Month to date snowfall 0.0 0.0  
Since 1 July snowfall 35.9 22.7  
Snow Depth 0.00 in    
Sea Level Pressure  
Sea Level Pressure 30.01 in    
Wind  
Wind Speed 12 mph (NW)    
Max Wind Speed 23 mph    
Max Gust Speed 29 mph    
Visibility 10 miles    
Events      
T = Trace of Precipitation, MM = Missing Value Source: NWS Daily Summary

Daily Weather History Graph

Daily Weather History Graph

Search for Another Location

Airport:

Trip Planner

Search our weather history database for the weather conditions in past years. The results will help you decide how hot, cold, wet, or windy it might be!

Date:

Astronomy

Apr. 01, 2013 Rise Set
Actual Time 7:20 AM EDT 8:01 PM EDT
Civil Twilight 6:53 AM EDT 8:28 PM EDT
Nautical Twilight 6:21 AM EDT 9:01 PM EDT
Astronomical Twilight 5:47 AM EDT 9:34 PM EDT
Moon 1:08 AM EDT (4/1) 11:06 AM EDT (4/1)
Length of Visible Light 13h 35m
Length of Day
12h 40m
Waning Gibbous, 67% of the Moon is Illuminated
Apr 1
Waning Gibbous
Apr 3
Last Quarter
Apr 10
New
Apr 18
First Quarter
Apr 25
Full

Hourly Weather History & Observations

Time (EDT) Temp. Windchill Dew Point Humidity Pressure Visibility Wind Dir Wind Speed Gust Speed Precip Events Conditions
12:56 AM 46.0 °F 39.6 °F 41.0 °F 83% 29.80 in 10.0 mi West 15.0 mph - N/A   Clear
1:56 AM 44.6 °F 38.4 °F 35.6 °F 71% 29.80 in 10.0 mi WNW 12.7 mph - N/A   Clear
2:56 AM 41.0 °F 33.5 °F 34.0 °F 76% 29.82 in 10.0 mi NNW 13.8 mph - N/A   Partly Cloudy
3:56 AM 39.0 °F 31.8 °F 30.9 °F 73% 29.84 in 10.0 mi NW 11.5 mph - N/A   Partly Cloudy
4:56 AM 37.9 °F 28.5 °F 28.9 °F 70% 29.85 in 10.0 mi NW 17.3 mph - N/A   Partly Cloudy
5:56 AM 37.0 °F 29.8 °F 28.0 °F 70% 29.90 in 10.0 mi NW 10.4 mph - N/A   Overcast
6:56 AM 36.0 °F 27.1 °F 28.0 °F 73% 29.93 in 10.0 mi NW 13.8 mph - N/A   Overcast
7:56 AM 36.0 °F 29.6 °F 28.0 °F 73% 29.98 in 10.0 mi NW 8.1 mph - N/A   Overcast
8:47 AM 35.6 °F 28.6 °F 28.4 °F 75% 29.98 in 10.0 mi NW 9.2 mph - N/A   Overcast
8:56 AM 37.4 °F 30.8 °F 28.4 °F 70% 29.98 in 10.0 mi NW 9.2 mph - N/A   Overcast
9:29 AM 35.6 °F 26.2 °F 26.6 °F 70% 30.00 in 10.0 mi North 15.0 mph - N/A   Overcast
9:56 AM 37.0 °F 27.4 °F 19.0 °F 48% 30.03 in 10.0 mi North 17.3 mph - N/A   Mostly Cloudy
10:56 AM 37.4 °F 28.2 °F 17.6 °F 45% 30.02 in 10.0 mi North 16.1 mph 21.9 mph N/A   Scattered Clouds
11:56 AM 37.9 °F 30.0 °F 19.9 °F 48% 30.06 in 10.0 mi NW 12.7 mph 19.6 mph N/A   Mostly Cloudy
12:56 PM 39.0 °F 29.9 °F 19.9 °F 46% 30.06 in 10.0 mi NW 17.3 mph 20.7 mph N/A   Mostly Cloudy
1:56 PM 41.0 °F 32.8 °F 19.4 °F 42% 30.06 in 10.0 mi NW 16.1 mph 23.0 mph N/A   Mostly Cloudy
2:56 PM 42.1 °F 34.9 °F 19.9 °F 41% 30.07 in 10.0 mi WNW 13.8 mph 19.6 mph N/A   Mostly Cloudy
3:56 PM 43.0 °F 36.4 °F 19.9 °F 40% 30.07 in 10.0 mi WNW 12.7 mph 20.7 mph N/A   Mostly Cloudy
4:56 PM 42.8 °F 34.5 °F 19.4 °F 39% 30.05 in 10.0 mi West 18.4 mph - N/A   Mostly Cloudy
5:56 PM 42.1 °F 34.9 °F 18.0 °F 38% 30.07 in 10.0 mi WNW 13.8 mph - N/A   Mostly Cloudy
6:56 PM 39.2 °F 30.2 °F 15.8 °F 39% 30.06 in 10.0 mi WNW 17.3 mph 24.2 mph N/A   Mostly Cloudy
7:56 PM 37.9 °F 32.1 °F 18.0 °F 45% 30.10 in 10.0 mi NW 8.1 mph - N/A   Partly Cloudy
8:56 PM 35.1 °F 29.3 °F 18.0 °F 50% 30.11 in 10.0 mi NW 6.9 mph - N/A   Partly Cloudy
9:56 PM 34.0 °F 29.8 °F 18.0 °F 52% 30.12 in 10.0 mi NNW 4.6 mph - N/A   Clear
10:56 PM 30.9 °F 25.2 °F 17.1 °F 57% 30.14 in 10.0 mi NNW 5.8 mph - N/A   Partly Cloudy
11:56 PM 30.0 °F 24.1 °F 17.1 °F 59% 30.15 in 10.0 mi NNW 5.8 mph - N/A   Clear